CST,Max TemperatureF,Mean TemperatureF,Min TemperatureF,Max Dew PointF,MeanDew PointF,Min DewpointF,Max Humidity, Mean Humidity, Min Humidity, Max Sea Level PressureIn, Mean Sea Level PressureIn, Min Sea Level PressureIn, Max VisibilityMiles, Mean VisibilityMiles, Min VisibilityMiles, Max Wind SpeedMPH, Mean Wind SpeedMPH, Max Gust SpeedMPH,PrecipitationIn, CloudCover, Events, WindDirDegrees
2013-11-1,60,48,35,44,40,35,100,82,44,30.01,29.79,29.60,10,10,5,28,12,44,0.02,3,Rain,290
2013-11-2,58,45,32,39,36,33,100,75,40,30.19,30.11,30.01,10,10,10,16,10,22,0.00,0,,253
2013-11-3,58,50,41,40,35,32,73,57,43,30.05,29.86,29.71,10,10,10,31,16,44,0.00,0,,148
2013-11-4,56,44,32,43,38,32,96,70,47,30.15,29.95,29.76,10,10,7,18,9,28,0.00,1,Rain,34
2013-11-5,42,36,31,41,36,30,100,95,78,30.15,30.02,29.87,10,7,1,21,6,28,0.96,7,Rain-Snow,12
2013-11-6,42,37,32,36,34,32,100,91,70,30.26,30.20,30.08,10,10,4,20,11,29,0.02,6,Rain-Snow,271
2013-11-7,49,38,28,34,29,24,100,79,38,30.41,30.33,30.25,10,10,10,18,7,24,0.00,0,,277
2013-11-8,61,48,34,40,34,28,96,63,39,30.25,29.92,29.73,10,10,10,23,11,32,0.00,0,,185
2013-11-9,60,46,33,39,35,32,100,70,41,30.36,30.13,29.92,10,10,10,15,8,20,0.00,0,,294
2013-11-10,53,42,30,38,32,30,100,70,41,30.40,30.30,30.13,10,10,10,13,3,17,0.00,2,,168
2013-11-11,44,30,16,40,24,12,100,77,53,30.78,30.43,30.10,10,10,10,18,7,28,0.00,2,,348
2013-11-12,34,22,9,14,11,8,93,65,35,30.87,30.74,30.52,10,10,7,14,4,21,0.00,0,,221
2013-11-13,56,41,26,32,24,14,66,55,40,30.51,30.22,29.98,10,10,10,18,14,25,0.00,0,,175
2013-11-14,56,44,32,40,34,29,99,73,54,29.97,29.92,29.89,10,10,7,8,4,,0.00,0,,188
2013-11-15,56,42,27,43,35,28,100,79,47,29.89,29.76,29.57,10,10,7,16,4,21,0.00,0,,144
2013-11-16,62,51,38,52,42,33,99,74,41,29.57,29.39,29.31,10,10,5,18,11,25,0.00,1,,180
2013-11-17,54,44,35,45,37,32,97,77,54,30.06,29.65,29.35,10,10,10,16,4,22,0.00,2,Rain,292
2013-11-18,55,40,25,34,30,24,99,70,40,30.24,30.16,30.06,10,10,10,14,6,17,0.00,0,,135
2013-11-19,62,48,35,35,30,27,75,50,32,30.15,29.98,29.84,10,10,10,23,12,34,0.00,0,,152
2013-11-20,57,47,35,39,35,30,95,60,45,29.94,29.81,29.74,10,10,10,21,14,29,0.00,0,,134
2013-11-21,36,28,21,36,23,18,100,82,68,30.58,30.30,29.97,10,9,1,24,15,29,0.00,6,Snow,335
2013-11-22,32,21,10,18,12,8,88,69,45,30.70,30.62,30.57,10,10,10,16,10,24,0.00,0,,290
2013-11-23,24,18,13,18,8,2,86,66,42,30.88,30.78,30.64,10,10,10,12,7,17,0.00,1,,2
2013-11-24,35,24,13,16,11,5,78,61,45,30.72,30.44,30.19,10,10,10,18,10,25,0.00,0,,170
2013-11-25,46,36,25,30,23,12,92,69,49,30.21,30.15,30.11,10,10,7,18,11,31,0.00,0,,261
2013-11-26,30,20,10,26,15,8,97,72,42,30.43,30.34,30.20,10,10,10,25,10,32,0.00,1,,313
2013-11-27,34,20,7,21,13,6,92,69,44,30.42,30.23,30.02,10,10,7,21,7,25,0.00,0,,207
2013-11-28,34,26,14,24,19,12,91,74,52,30.47,30.33,30.06,10,10,7,20,9,29,0.00,1,,330
2013-11-29,45,30,15,29,23,13,93,74,51,30.47,30.29,30.11,10,10,10,18,6,22,0.00,0,,142
2013-11-30,58,40,22,33,28,21,96,72,37,30.16,30.10,30.05,10,10,7,8,3,,0.00,0,,294